M0ZPG Weather Reports


time (UTC)temp
F
wind
direction
speed
knots
gust
knots
rain 1hr
in
rain 24hr
in
rain mn
in
humidity
%
barometer
mb
20260506170218 56 23 0.9 3.5 0.00 0.00 0.00 59 1011.8
20260506165403 56 35 1.7 4.3 0.00 0.00 0.00 58 1011.7
20260506164505 57 8 1.7 7.0 0.00 0.00 0.00 58 1011.7
20260506163603 57 13 1.7 4.3 0.00 0.00 0.00 59 1011.7
20260506162705 58 15 1.7 7.0 0.00 0.00 0.00 58 1011.7
20260506161805 58 356 1.7 6.1 0.00 0.00 0.00 59 1011.7
20260506160903 57 1 1.7 7.0 0.00 0.00 0.00 60 1011.7
20260506160005 56 10 1.7 4.3 0.00 0.00 0.00 61 1011.9
20260506155615 56 11 1.7 7.8 0.00 0.00 0.00 61 1011.9
20260506154503 56 36 1.7 7.0 0.00 0.00 0.00 61 1011.9
20260506153603 56 331 1.7 7.8 0.00 0.00 0.00 62 1012.0
20260506152706 56 336 1.7 7.0 0.00 0.00 0.00 63 1012.0
20260506151806 55 350 1.7 5.2 0.00 0.00 0.00 63 1012.0
20260506150904 55 21 1.7 7.0 0.00 0.00 0.00 65 1012.1
20260506150003 55 12 1.7 7.8 0.00 0.00 0.00 65 1012.0
20260506145403 55 21 1.7 5.2 0.00 0.00 0.00 65 1012.0
20260506144505 55 52 1.7 7.0 0.00 0.00 0.00 64 1012.0
20260506143604 55 22 1.7 7.0 0.00 0.00 0.00 64 1012.0
20260506142918 56 13 1.7 7.8 0.00 0.00 0.00 64 1012.1
20260506141805 57 19 2.6 7.8 0.00 0.00 0.00 61 1011.9
20260506140908 58 17 2.6 7.0 0.00 0.00 0.00 60 1011.8
20260506140003 57 1 1.7 4.3 0.00 0.00 0.00 61 1011.8
20260506135617 57 7 1.7 4.3 0.00 0.00 0.00 60 1011.8
20260506134505 57 12 1.7 7.0 0.00 0.00 0.00 60 1011.9
20260506133605 57 359 1.7 6.1 0.00 0.00 0.00 60 1011.9
20260506132705 57 354 1.7 7.0 0.00 0.00 0.00 61 1011.9
20260506131803 58 358 2.6 7.8 0.00 0.00 0.00 60 1011.9
20260506130905 58 5 2.6 8.7 0.00 0.00 0.00 59 1011.8
20260506130003 58 23 2.6 10.4 0.00 0.00 0.00 56 1011.9
20260506125405 58 30 2.6 10.4 0.00 0.00 0.00 56 1012.0
20260506124714 58 23 1.7 7.0 0.00 0.00 0.00 59 1012.0
20260506123603 58 35 1.7 7.0 0.00 0.00 0.00 59 1012.0
20260506122914 57 13 2.6 9.6 0.00 0.00 0.00 61 1011.9
20260506122017 57 350 2.6 8.7 0.00 0.00 0.00 60 1012.0
20260506120905 58 4 2.6 8.7 0.00 0.00 0.00 60 1012.0
20260506120003 57 342 2.6 7.8 0.00 0.00 0.00 61 1012.0
20260506115403 57 346 2.6 8.7 0.00 0.00 0.00 62 1012.0
20260506114504 57 1 2.6 7.8 0.00 0.00 0.00 60 1012.0
20260506113818 58 7 2.6 7.0 0.00 0.00 0.00 58 1012.0
20260506112703 58 345 2.6 10.4 0.00 0.00 0.00 56 1012.0
20260506112017 58 37 2.6 7.8 0.00 0.00 0.00 58 1011.9
20260506110903 57 346 2.6 7.8 0.00 0.00 0.00 57 1012.0
20260506110005 56 4 1.7 6.1 0.00 0.00 0.00 58 1012.0
20260506105403 56 351 1.7 6.1 0.00 0.00 0.00 60 1012.0
20260506104503 56 336 3.5 12.2 0.00 0.00 0.00 58 1012.0
20260506103603 57 34 2.6 10.4 0.00 0.00 0.00 58 1011.9
20260506102916 56 348 2.6 10.4 0.00 0.00 0.00 57 1011.9
20260506102018 57 347 2.6 10.4 0.00 0.00 0.00 58 1012.0
20260506100905 56 3 3.5 12.2 0.00 0.00 0.00 58 1012.1
20260506100004 55 2 3.5 10.4 0.00 0.00 0.00 59 1011.9
20260506095405 55 3 2.6 10.4 0.00 0.00 0.00 59 1012.2
20260506094505 54 333 2.6 9.6 0.00 0.00 0.00 62 1012.1
20260506093608 55 336 3.5 8.7 0.00 0.00 0.00 60 1012.1
20260506092705 55 338 1.7 8.7 0.00 0.00 0.00 61 1012.1
20260506091805 54 357 2.6 7.8 0.00 0.00 0.00 62 1011.9
20260506091116 54 344 3.5 8.7 0.00 0.00 0.00 61 1011.9
20260506090003 54 327 2.6 10.4 0.00 0.00 0.00 59 1011.9
20260506085403 54 358 2.6 9.6 0.00 0.00 0.00 63 1011.8
20260506084717 53 7 1.7 8.7 0.00 0.00 0.00 65 1011.8
20260506083603 53 339 2.6 10.4 0.00 0.00 0.00 64 1011.8
20260506082705 54 349 1.7 8.7 0.00 0.00 0.00 65 1011.6
20260506081805 54 330 1.7 10.4 0.00 0.00 0.00 66 1011.6
20260506080905 53 343 2.6 7.0 0.00 0.00 0.00 68 1011.7
20260506080219 53 339 2.6 7.0 0.00 0.00 0.00 69 1011.6
20260506072704 50 338 1.7 5.2 0.00 0.00 0.00 76 1011.9
20260506071805 49 2 0.9 4.3 0.00 0.00 0.00 76 1011.9
20260506070903 49 9 0.9 8.7 0.00 0.00 0.00 77 1011.9
20260506061803 50 322 1.7 7.8 0.00 0.00 0.00 74 1011.7
20260506060903 49 329 0.9 7.0 0.00 0.00 0.00 76 1011.6
20260506050905 47 3 0.9 4.3 0.00 0.00 0.00 80 1011.4
20260506044503 48 1 0.9 7.0 0.00 0.00 0.00 79 1011.2
20260506043606 48 358 0.9 7.0 0.00 0.00 0.00 79 1011.3
20260506042914 48 358 0.9 7.0 0.00 0.00 0.00 79 1011.3
20260506041805 48 10 0.9 5.2 0.00 0.00 0.00 79 1011.2
20260506040903 48 17 0.9 2.6 0.00 0.00 0.00 79 1011.0
20260506040003 48 23 1.7 5.2 0.00 0.00 0.00 78 1011.0
20260506035403 48 1 0.9 3.5 0.00 0.00 0.00 77 1011.0
20260506034505 49 356 0.9 4.3 0.00 0.00 0.00 76 1011.0
20260506033603 49 29 0.9 5.2 0.00 0.00 0.00 75 1011.0
20260506032915 49 41 0.9 5.2 0.00 0.00 0.00 75 1011.1
20260506032017 49 6 1.7 7.0 0.00 0.00 0.00 75 1011.0
20260506030908 49 4 1.7 7.0 0.00 0.00 0.00 77 1011.0
20260506030005 50 13 1.7 7.0 0.00 0.00 0.00 78 1011.0
20260506025403 50 18 0.9 5.2 0.00 0.00 0.00 78 1011.0
20260506024504 50 60 0.9 3.5 0.00 0.00 0.00 78 1011.1
20260506023605 50 22 1.7 6.1 0.00 0.00 0.00 78 1011.2
20260506022705 50 358 1.7 6.1 0.00 0.00 0.00 79 1011.3
20260506021804 50 7 1.7 7.0 0.00 0.00 0.00 79 1011.3
20260506020905 50 29 1.7 7.0 0.00 0.00 0.00 78 1011.3
20260506020006 50 8 0.9 2.6 0.00 0.00 0.00 78 1011.4
20260506015403 50 30 0.9 3.5 0.00 0.00 0.00 78 1011.4
20260506014505 51 19 0.9 4.3 0.00 0.00 0.00 78 1011.4
20260506013603 51 2 0.9 5.2 0.00 0.00 0.00 78 1011.4
20260506012705 51 17 0.9 3.5 0.00 0.00 0.00 77 1011.5
20260506011805 51 9 0.9 7.8 0.00 0.00 0.00 76 1011.6
20260506011116 51 14 0.9 4.3 0.00 0.00 0.00 76 1011.6
20260506010005 51 52 0.9 6.1 0.00 0.00 0.00 77 1011.6
20260506005403 51 78 0.9 6.1 0.00 0.00 0.00 76 1011.5
20260506004505 51 97 0.9 3.5 0.00 0.00 0.00 76 1011.6
20260506003604 51 36 0.9 3.5 0.00 0.00 0.00 76 1011.7
20260506002705 51 40 0.9 5.2 0.00 0.00 0.00 75 1011.7
20260506001806 51 48 1.7 7.0 0.00 0.00 0.00 75 1011.8
20260506000904 51 50 0.9 6.1 0.00 0.00 0.00 75 1011.8
20260506000005 51 58 1.7 7.0 0.00 0.00 0.00 75 1011.9
20260505235615 52 60 1.7 7.0 0.00 0.00 0.00 75 1011.8
20260505234505 52 50 1.7 7.0 0.00 0.00 0.00 74 1011.8
20260505233604 52 31 2.6 11.3 0.00 0.00 0.00 73 1011.9
20260505232917 52 40 1.7 7.0 0.00 0.00 0.00 74 1011.8
20260505231805 52 45 1.7 6.1 0.00 0.00 0.00 77 1011.7
20260505230903 52 21 1.7 9.6 0.00 0.00 0.00 78 1011.7
20260505230003 52 54 0.9 7.0 0.00 0.00 0.00 80 1011.8
20260505225405 52 80 0.9 3.5 0.00 0.00 0.00 81 1011.7
20260505224505 52 83 0.9 5.2 0.00 0.00 0.00 80 1011.8
20260505223816 52 88 1.7 6.1 0.00 0.00 0.00 80 1011.7
20260505222706 53 58 0.9 4.3 0.00 0.00 0.00 79 1011.7
20260505221806 53 35 0.9 4.3 0.00 0.00 0.00 79 1011.8
20260505220908 53 52 1.7 7.0 0.00 0.00 0.00 79 1011.8
20260505220007 54 20 1.7 10.4 0.00 0.00 0.00 79 1011.9
20260505215403 54 5 2.6 10.4 0.00 0.00 0.00 77 1011.8
20260505214503 54 41 1.7 7.8 0.00 0.00 0.00 73 1011.7
20260505213604 54 69 1.7 4.3 0.00 0.00 0.00 72 1011.6
20260505212703 54 78 0.9 5.2 0.00 0.00 0.00 73 1011.6
20260505211805 54 90 0.9 3.5 0.00 0.00 0.00 73 1011.6
20260505211118 54 90 0.9 3.5 0.00 0.00 0.00 73 1011.5
20260505210003 54 90 0.9 5.2 0.00 0.00 0.00 74 1011.6
20260505205406 54 89 0.9 4.3 0.00 0.00 0.00 74 1011.5
20260505204505 55 83 2.6 8.7 0.00 0.00 0.00 73 1011.5
20260505203604 55 89 1.7 8.7 0.00 0.00 0.00 70 1011.5
20260505202703 56 85 0.9 3.5 0.00 0.00 0.00 69 1011.4
20260505201805 56 85 1.7 5.2 0.00 0.00 0.00 68 1011.2
20260505200903 56 81 1.7 3.5 0.00 0.00 0.00 68 1011.1
20260505200005 57 82 2.6 6.1 0.00 0.00 0.00 66 1011.0
20260505195403 57 88 1.7 5.2 0.00 0.00 0.00 65 1010.9
20260505194503 57 76 1.7 4.3 0.00 0.00 0.00 63 1010.8
20260505193605 57 78 0.9 4.3 0.00 0.00 0.00 62 1010.6
20260505192915 57 82 0.0 3.5 0.00 0.00 0.00 62 1010.5
20260505192017 58 82 0.0 1.7 0.00 0.00 0.00 62 1010.3
20260505190905 58 82 0.9 2.6 0.00 0.00 0.00 61 1010.1
20260505190003 58 82 0.9 2.6 0.00 0.00 0.00 61 1010.0
20260505185403 58 82 0.0 1.7 0.00 0.00 0.00 61 1010.0
20260505184716 58 82 0.9 2.6 0.00 0.00 0.00 61 1010.0
20260505183604 58 82 0.9 2.6 0.00 0.00 0.00 60 1010.0
20260505182705 58 82 0.9 2.6 0.00 0.00 0.00 60 1009.9
20260505181805 58 82 1.7 3.5 0.00 0.00 0.00 60 1009.9
20260505180903 58 85 1.7 6.1 0.00 0.00 0.00 60 1010.1
20260505180003 59 94 1.7 5.2 0.00 0.00 0.00 59 1010.1
20260505175403 59 97 1.7 5.2 0.00 0.00 0.00 60 1010.1
20260505174503 59 94 1.7 6.1 0.00 0.00 0.00 59 1010.1
20260505173603 59 93 1.7 7.0 0.00 0.00 0.00 58 1010.2
20260505172703 60 90 0.9 3.5 0.00 0.00 0.00 58 1010.2
20260505171805 60 75 1.7 4.3 0.00 0.00 0.00 57 1010.2
20260505170903 60 78 1.7 4.3 0.00 0.00 0.00 57 1010.2